VV1440 KHHR-

Flight info

Callsign VV1440
Flight time N/A
Altitude VFR
Route
Aircraft HELI/L-DOV/C

Departure

Time 2026-05-05 00:06
Airport Jack Northrop Field Hawthorne Municipal Airport (KHHR)

Arrival

Time N/A
Airport -
Time Latitude Longitude Altitude Speed Heading
2026-05-04 23:55 33.91246 -118.35884 662 ft 77 kts 270°
2026-05-04 23:56 33.91233 -118.36102 595 ft 91 kts 265°
2026-05-04 23:56 33.91172 -118.37001 564 ft 121 kts 266°
2026-05-04 23:57 33.91112 -118.38078 523 ft 137 kts 266°
2026-05-04 23:57 33.91051 -118.39260 519 ft 145 kts 266°
2026-05-04 23:57 33.90984 -118.40491 531 ft 149 kts 266°
2026-05-04 23:57 33.90915 -118.41739 536 ft 150 kts 266°
2026-05-04 23:58 33.90847 -118.43001 540 ft 151 kts 266°
2026-05-04 23:58 33.90779 -118.44243 543 ft 151 kts 266°
2026-05-04 23:58 33.90711 -118.45514 549 ft 149 kts 266°
2026-05-04 23:58 33.90645 -118.46741 551 ft 148 kts 266°
2026-05-04 23:59 33.90585 -118.47901 579 ft 123 kts 266°
2026-05-04 23:59 33.90538 -118.48842 577 ft 103 kts 266°
2026-05-04 23:59 33.90502 -118.49632 579 ft 88 kts 266°
2026-05-04 23:59 33.90468 -118.50329 574 ft 80 kts 266°
2026-05-05 00:00 33.90439 -118.50979 569 ft 76 kts 266°
2026-05-05 00:00 33.90429 -118.51194 569 ft 76 kts 266°
2026-05-05 00:00 33.90059 -118.52079 586 ft 79 kts 209°
2026-05-05 00:00 33.89461 -118.52123 545 ft 110 kts 181°
2026-05-05 00:01 33.88559 -118.52174 525 ft 145 kts 185°
2026-05-05 00:01 33.87492 -118.52304 533 ft 160 kts 187°
2026-05-05 00:01 33.86356 -118.52442 538 ft 167 kts 187°
2026-05-05 00:01 33.85192 -118.52584 542 ft 169 kts 187°
2026-05-05 00:02 33.84029 -118.52726 545 ft 168 kts 187°
2026-05-05 00:02 33.82982 -118.52833 325 ft 113 kts 180°
2026-05-05 00:02 33.82380 -118.52766 149 ft 70 kts 184°
2026-05-05 00:02 33.82012 -118.52795 206 ft 35 kts 190°
2026-05-05 00:03 33.81879 -118.52946 215 ft 23 kts 236°
2026-05-05 00:03 33.81836 -118.53052 177 ft 4 kts 239°
2026-05-05 00:03 33.81830 -118.53069 163 ft 0 kts 237°
2026-05-05 00:03 33.81828 -118.53071 163 ft 0 kts 242°
2026-05-05 00:05 33.81832 -118.53058 172 ft 13 kts 226°
2026-05-05 00:06 33.81552 -118.52760 364 ft 86 kts 142°
2026-05-05 00:06 33.81550 -118.52757 366 ft 86 kts 142°
2026-05-05 00:06 33.81219 -118.52382 822 ft 103 kts 133°
2026-05-05 00:06 33.80670 -118.51716 732 ft 122 kts 134°
2026-05-05 00:07 33.80049 -118.50947 726 ft 133 kts 134°
2026-05-05 00:07 33.79401 -118.50137 726 ft 138 kts 134°
2026-05-05 00:07 33.78733 -118.49291 727 ft 140 kts 133°
2026-05-05 00:07 33.78059 -118.48433 729 ft 141 kts 134°
2026-05-05 00:08 33.77384 -118.47574 731 ft 142 kts 134°
2026-05-05 00:08 33.76709 -118.46713 733 ft 142 kts 133°
2026-05-05 00:08 33.76034 -118.45852 734 ft 142 kts 134°
2026-05-05 00:08 33.75359 -118.44988 738 ft 141 kts 133°
2026-05-05 00:09 33.74847 -118.44014 495 ft 137 kts 111°
2026-05-05 00:09 33.74650 -118.43281 333 ft 138 kts 104°
2026-05-05 00:09 33.74417 -118.42301 396 ft 101 kts 98°
2026-05-05 00:09 33.74257 -118.41670 292 ft 53 kts 87°
2026-05-05 00:10 33.74191 -118.41419 242 ft 20 kts 102°
2026-05-05 00:10 33.74168 -118.41245 215 ft 24 kts 109°
2026-05-05 00:10 33.74142 -118.41089 145 ft 9 kts 84°
2026-05-05 00:10 33.74147 -118.41037 129 ft 4 kts 60°
2026-05-05 00:11 33.74147 -118.41033 125 ft 0 kts 58°